647  
ASHW40 PHFO 041312  
RWRHI  
 
WEATHER ROUNDUP FOR HAWAII  
NATIONAL WEATHER SERVICE HONOLULU HI  
300 AM HST WED MAY 04 2016  
 
THIS IS AN AUTOMATED REPORT THAT HAS NOT BEEN QUALITY CONTROLLED.  
 
NOTE..."FAIR" INDICATES FEW OR NO CLOUDS BELOW 12,000 FEET WITH NO  
SIGNIFICANT WEATHER AND/OR S TO VISIBILITY
.  
 
* - THESE SITES REPORT LIMITED FIELDS  
 
HIZ001>004-041400-  
KAUAI-NIIHAU-  
 
CITY SKY/WX TMP DP RH WIND PRES REMARKS
 
LIHUE APT CLOUDY 76 69 79 NE15 30.10F  
PORT ALLEN* N/A 72 N/A N/A E9 N/A  
POIPU* N/A 72 N/A N/A NE9G17 N/A  
PRINCEVILLE* N/A 70 N/A N/A SE5 N/A  
KOKOLE POINT* NOT AVBL  
MOLOAA DAIRY* N/A 72 70 94 E3G12 N/A  
WAIMEA HTS* NOT AVBL  
PUU OPAE* NOT AVBL  
PUU LUA* NOT AVBL  
MAKAHA RIDGE* NOT AVBL  

 
 
HIZ005>011-041400-  
OAHU-  
 
CITY SKY/WX TMP DP RH WIND PRES REMARKS
 
HONOLULU PTCLDY 74 66 76 CALM 30.06F  
KALAELOA PTCLDY 71 66 84 NE3 30.08F  
KANEOHE MCB MOCLDY 74 67 78 E6 30.05F  
WHEELER FIELD FAIR 70 64 81 NE3 30.07F  
BELLOWS* NOT AVBL  
KAHUKU* NOT AVBL  
WHEELER* NOT AVBL  
WAIANAE HARBOR NOT AVBL  
DILLINGHAM* N/A 70 66 88 MISG N/A  
KAHUKU TRN* N/A 68 64 88 CALM N/A  
KAWAILOA* N/A 68 63 83 E8G16 N/A  
KII* N/A 73 70 88 E12G20 N/A  
MAKUA RANGE* N/A 81 73 78 E5 N/A  
OAHU FOREST NW NOT AVBL  
SCHOFIELD BRK* N/A 72 68 88 MISG N/A  
SCHOFIELD S* NOT AVBL  
WAIANAE VLY* NOT AVBL  
KUAOKALA* NOT AVBL  
HONOULIUULI* NOT AVBL  
MOKUOLOE IS* NOT AVBL  
PALEHUA* NOT AVBL  
WAIAWA PHB* NOT AVBL  

 
 
HIZ012>013-041400-  
MOLOKAI-  
 
CITY SKY/WX TMP DP RH WIND PRES REMARKS
 
MOLOKAI AIRPT CLEAR 72 65 78 NE7 30.06F  
KALAUPAPA NOT AVBL  
MAKAPULAPAI* NOT AVBL  
MOLOKAI 1* NOT AVBL  
PUU ALII* NOT AVBL  

 
 
HIZ016-041400-  
KAHOOLAWE-  
 
CITY SKY/WX TMP DP RH WIND PRES REMARKS
 
KAHOOLAWE* NOT AVBL  
HAKIOAWA* NOT AVBL  
HONOKANAIA* N/A 73 62 68 N7G18 N/A  
KANELOA* N/A 73 64 73 E16G26 30.12F  
KEALIALALO* NOT AVBL  
LUA MAKIKA* NOT AVBL  

 
 
HIZ014>015-041400-  
LANAI-  
 
CITY SKY/WX TMP DP RH WIND PRES REMARKS
 
LANAI CITY FAIR 67 63 87 NE12 30.10F  
LANAI 1* NOT AVBL  

 
 
HIZ017>028-041400-  
MAUI-  
 
CITY SKY/WX TMP DP RH WIND PRES REMARKS
 
KAHULUI CLEAR 72 65 78 CALM 30.04F  
KAPALUA-W MAUI NOT AVBL  
HANA AIRPORT NOT AVBL  
HANA* N/A 73 N/A N/A E5 N/A  
HALEAKALA SUMM N/A 45 30 57 E17G30 N/A  
MAALAEA BAY* NOT AVBL  
HALEAKALA* NOT AVBL  
KAUPO GAP* NOT AVBL  
KULA 1* N/A 48 39 71 NE3 N/A  

 
 
HIZ023>026-041400-  
BIG ISLAND OF HAWAII COAST AND LOWER SLOPES-  
 
CITY SKY/WX TMP DP RH WIND PRES REMARKS
 
KAILUA KONA CLEAR 75 65 70 SE5 30.01F  
HILO CLOUDY 70 62 76 CALM 30.07F  
HONOKAA* N/A 66 N/A N/A VRB1 N/A  
KAWAIHAE MWT* N/A 77 N/A N/A E9 N/A  
KAWAIHAE* NOT AVBL  
SOUTH POINT* N/A 68 N/A N/A N12G17 N/A  
UPOLU AIRPORT* N/A N/A N/A N/A NE17G24 N/A  
KAMUELA* SUNNY 55 54 94 E7 30.13S  
HAKALAU* N/A 46 43 87 SW6G12 N/A  
KALOKO-HONOKO* NOT AVBL  
PALI 2* N/A 63 55 77 S9 N/A  
KEALAKOMO* N/A 75 63 64 E10G18 N/A  
KAUPULEHU* NOT AVBL  
KAPAPALA* N/A 58 53 83 VRB3G9 N/A  
LOWER KAHUKU* NOT AVBL  
PUHE CS* NOT AVBL  
PUHO CS* NOT AVBL  
PTA KEAMUKU* N/A 55 52 88 CALM N/A  
WAIKOLOA* NOT AVBL  

 
 
HIZ027>028-041400-  
BIG ISLAND OF HAWAII INTERIOR AND SUMMMITS-  
 
CITY SKY/WX TMP DP RH WIND PRES REMARKS
 
BRADSHAW FIELD CLOUDY 46 36 68 SE6 30.32F  
MK VISITOR CEN N/A 54 23 30 E6 N/A  
MAUNA KEA* N/A 37 12 35 E10 N/A  
MAUNA LOA* N/A 48 12 23 MISG N/A  
MAUNA LOA 1* NOT AVBL  
PTA KIPUKA* N/A 72 70 94 SE6 N/A  
PTA RANGE 17* N/A 55 45 67 E15G24 N/A  
PTA WEST* N/A 70 63 78 E5G14 N/A  
NENE CABIN* NOT AVBL  
AHUMOA* NOT AVBL  
PTA PORTABLE* NOT AVBL  
PUU MALI* N/A 57 37 47 NE7G15 N/A  

 
 
HIC003-041400-  
NORTHWEST ISLANDS-  
 
CITY SKY/WX TMP DP RH WIND PRES REMARKS
 
MIDWAY ISLAND CLOUDY 72 64 78 N10 30.14F  
MIDWAY NOS* NOT AVBL  
FRENCH FRIGATE NOT AVBL  

 
 
PHZ110>124-180-041400-  
BUOY REPORTS  
 
STATION/POSITION TIME TEMP WIND PRES WAVE SWELL
 
AIR SEA DIR/SP/G HT/PER HT/DIR  
(UTC) (F) (DEG/KT/KT) (MB) (FT/S) (FT/D)  
BUOY 51001 1200 77 78 90/ 12/ 16 1018.3F  
BUOY 51101 1250 75 75 80/ 12/ 16 1020.1F 7/16 7/300  
BUOY 51100 NOT AVBL  
BUOY 51002 1250 77 78 80/ 17/ 21 1015.1F 7/ 8 3/140  
BUOY 51003 1250 76 78 70/ 6/ 8 1016.8F 6/ 9 7/ 80  
BUOY 51004 1250 78 79 70/ 16/ 19 1015.9F 7/ 7 3/ 30  
BARBERS PT BUOY NOT AVBL  
WAIMEA BAY BUOY 1204 78 N/A 6/ 8 2/300  
KAILUA BAY BUOY 1211 78 N/A 6/ 8 2/ 70  
LANAI BUOY 1215 79 N/A 3/14 2/200  
BARBERS PT 2 1203 78 N/A 4/ 8 2/190  
PAUWELA MAUI 1209 77 N/A 6/ 8 2/ 30  
HILO 1212 78 N/A 6/ 8 2/ 20  
KANEOHE BAY BUOY 1206 77 N/A 7/ 8  
HANALEI KAUAI NOT AVBL  
KAHULUI HARBOR 1200 74 78 40/ 8/ 14 1017.8F  
HONOLULU HARBOR 1200 76 78 360/ 2/ 4 1019.1F  
KILO NALU NOT AVBL  
HILO HARBOR 1200 71 77 180/ 5/ 7 1018.3F  
MOKUOLOE 1200 75 78 90/ 5/ 11 1018.7F  
NAWILIWILI 1200 75 80 60/ 14/ 18 1019.1F  
WHOTS BUOY NOT AVBL  
BUOY 51028 NOT AVBL  

 
   
.....................KEY.....................................
 
 
SKY/WX - SKY CONDITIONS/PRESENT WEATHER  
TMP - TEMPERATURE IN FAHRENHEIT  
DWPT - DEWPOINT IN FAHRENHEIT  
RH - RELATIVE HUMIDITY IN PERCENT  
WIND - DIRECTION AND SPEED /MPH FOR ISLANDS...KTS FOR BUOYS/  
PRES - MEAN SEA LEVEL PRESSURE IN INCHES OF HG  
VSB - VISIBILITY IN MILES  
HX - HEAT INDEX  
WCI - WIND CHILL INDEX  
VRB - VARIABLE WIND DIRECTION  
N/A - NOT AVAILABLE  
 
 
CLICK HERE TO GO TO PREVIOUS BULLETINS.

The Nexlab HI Page Main Text Page

The Nexlab HI Page Main Text Page